Location: Unspecified
(0.0000°N, 0.0000°E)
Time: 11:18:29
(UTC+00:00)

Tiros 1 - Pass Details

Date: 25 November 2019
Orbit: 630 x 664 km, 48.4° (Epoch: 07 December)

Event Time Altitude Azimuth Distance (km) Brightness Sun altitude
Rises 21:26:12 0° 298° (WNW) 2,940 - -49.8°
Reaches altitude 10° 21:28:54 10° 283° (WNW) 2,040 - -50.4°
Maximum altitude 21:32:39 24° 230° (SW) 1,361 - -51.1°
Drops below altitude 10° 21:36:27 10° 177° (S) 2,062 - -51.9°
Sets 21:39:12 0° 163° (SSE) 2,980 - -52.5°
